{"data":{"norad_id":53616,"epoch":"2026-05-24T15:53:28.358592Z","epoch_age_seconds":107700,"freshness":"FRESH","line1":"1 53616U 22104AE  26144.66213378 -.00000322  00000+0 -21576-5 0  9997","line2":"2 53616  53.2156 242.9403 0001082  85.8986 274.2130 15.08839680207358","mean_motion":15.0883968,"eccentricity":0.0001082,"inclination_deg":53.2156,"raan_deg":242.9403,"arg_perigee_deg":85.8986,"mean_anomaly_deg":274.213,"bstar":-2.1576e-6,"rev_number":20735,"period_min":95.437574918496,"perigee_km":538.99585231234,"apogee_km":540.49288184018,"semimajor_km":6917.8813670763,"source":"CELESTRAK","updated_at":"2026-05-25T13:38:17.478607Z"}}